Regional Weather Roundup
Issued by NWS

Home | Current Version | Previous Version | Text Only | Print | Product List | Glossary On
Versions: 1 2 3 4 5 6 7 8 9 10 11 12 13 14 15 16 17 18 19 20 21 22 23 24 25 26 27 28 29 30 31 32 33 34 35 36 37 38 39 40 41 42 43 44 45 46 47 48 49 50
000
ASUS44 KOUN 032210
RWROK

WEATHER ROUNDUP FOR OKLAHOMA
NATIONAL WEATHER SERVICE NORMAN OK
500 PM CDT TUE MAY 03 2016

NOTE: "FAIR" INDICATES FEW OR NO CLOUDS BELOW 12,000 FEET WITH NO
      SIGNIFICANT WEATHER AND/OR OBSTRUCTIONS TO VISIBILITY.

OKZ001>007-009>012-014-015-017-032300-
NORTHWEST OKLAHOMA AND THE PANHANDLE

CITY           SKY/WX    TMP DP  RH WIND       PRES   REMARKS
GAGE           MOSUNNY   73  36  25 N22       30.01F
GUYMON         MOSUNNY   69  36  29 N17G26    30.07R
ENID/WOODRING  PTSUNNY   75  46  35 S6        29.99F
$$

OKZ016-021>023-033>039-044-045-032300-
SOUTHWEST OKLAHOMA

CITY           SKY/WX    TMP DP  RH WIND       PRES   REMARKS
LAWTON/REGL    CLOUDY    68  51  54 CALM      30.03F
LAWTON/FT SILL PTSUNNY   67  51  55 S2        30.01F
FREDERICK      CLOUDY    64  54  69 SW13      30.02F
CLINTON        PTSUNNY   71  40  32 W9        30.03F
HOBART         MOSUNNY   69  50  50 SW9       30.01S
ALTUS AFB      PTSUNNY   67  48  49 S10       30.02F
$$

OKZ018>020-024>031-032300-
CENTRAL OKLAHOMA

CITY           SKY/WX    TMP DP  RH WIND       PRES   REMARKS
OKLAHOMA CITY  PTSUNNY   69  44  40 S5        30.01F
OKC/WILEY POST PTSUNNY   69  45  41 S12       30.01F
OKC/TINKER AFB MOSUNNY   69  40  34 SW7       30.01F
STILLWATER     MOSUNNY   71  41  33 S5        30.01F
GUTHRIE        PTSUNNY   71  40  32 SW5       30.01F
$$

OKZ008-013-054>072-032300-
NORTHEAST OKLAHOMA

CITY           SKY/WX    TMP DP  RH WIND       PRES   REMARKS
TULSA          MOSUNNY   71  43  36 NW3       30.00F
TULSA/JONES    SUNNY     73  42  32 CALM      30.01F
PONCA CITY     MOSUNNY   71  41  33 CALM      30.00F
BARTLESVILLE   PTSUNNY   70  40  33 W5        30.02F
MUSKOGEE       MOSUNNY   71  45  39 CALM      30.04F
$$

OKZ032-040>043-046>053-073>077-032300-
SOUTH CENTRAL/SOUTHEAST OKLAHOMA

CITY           SKY/WX    TMP DP  RH WIND       PRES   REMARKS
ARDMORE/DWNTWN SUNNY     70  37  30 W5        30.03F
MCALESTER      PTSUNNY   71  43  36 NE6       30.03F
$$





USA.gov is the U.S. government's official web portal to all federal, state and local government web resources and services.